| time (UTC) | temp C | wind direction | speed KPH | gust KPH | rain 1hr cm | rain 24hr cm | rain mn cm | humidity % | barometer mb |
| 20260506184545 | 12 | 306 | 12.9 | 0.0 | 0.00 | 0.00 | 0.76 | 64 | 1010.0 |
| 20260506183045 | 12 | 311 | 8.0 | 0.0 | 0.00 | 0.00 | 0.76 | 60 | 1010.0 |
| 20260506181559 | 12 | 306 | 8.0 | 0.0 | 0.00 | 0.00 | 0.76 | 62 | 1009.8 |
| 20260506180044 | 12 | 340 | 4.8 | 0.0 | 0.00 | 0.00 | 0.76 | 65 | 1009.9 |
| 20260506174543 | 12 | 306 | 6.4 | 0.0 | 0.00 | 0.00 | 0.76 | 65 | 1009.9 |
| 20260506173059 | 12 | 306 | 9.7 | 0.0 | 0.00 | 0.00 | 0.76 | 61 | 1009.8 |
| 20260506171549 | 13 | 320 | 8.0 | 0.0 | 0.00 | 0.00 | 0.76 | 64 | 1009.6 |
| 20260506170038 | 12 | 298 | 9.7 | 0.0 | 0.00 | 0.00 | 0.76 | 64 | 1009.6 |
| 20260506164536 | 12 | 312 | 12.9 | 0.0 | 0.00 | 0.00 | 0.76 | 70 | 1010.0 |
| 20260506163035 | 12 | 298 | 11.3 | 0.0 | 0.00 | 0.00 | 0.76 | 69 | 1009.7 |
| 20260506161532 | 12 | 320 | 9.7 | 0.0 | 0.00 | 0.00 | 0.76 | 74 | 1009.6 |
| 20260506160037 | 11 | 299 | 9.7 | 0.0 | 0.00 | 0.00 | 0.71 | 73 | 1009.3 |
| 20260506154526 | 11 | 296 | 12.9 | 0.0 | 0.00 | 0.00 | 0.71 | 76 | 1009.3 |
| 20260506153024 | 11 | 281 | 11.3 | 0.0 | 0.00 | 0.00 | 0.71 | 80 | 1009.3 |
| 20260506151521 | 10 | 293 | 9.7 | 0.0 | 0.00 | 0.00 | 0.71 | 80 | 1009.0 |
| 20260506150017 | 10 | 298 | 8.0 | 0.0 | 0.00 | 0.00 | 0.71 | 80 | 1008.8 |
| 20260506144515 | 10 | 294 | 12.9 | 0.0 | 0.00 | 0.00 | 0.71 | 83 | 1008.5 |
| 20260506143013 | 10 | 315 | 11.3 | 0.0 | 0.00 | 0.00 | 0.71 | 84 | 1008.6 |
| 20260506141511 | 9 | 315 | 9.7 | 0.0 | 0.00 | 0.00 | 0.71 | 84 | 1008.3 |
| 20260506140009 | 8 | 296 | 9.7 | 0.0 | 0.00 | 0.00 | 0.71 | 86 | 1008.3 |
| 20260506134507 | 8 | 292 | 9.7 | 0.0 | 0.00 | 0.00 | 0.71 | 88 | 1008.4 |
| 20260506133005 | 8 | 312 | 8.0 | 0.0 | 0.00 | 0.00 | 0.71 | 91 | 1008.2 |
| 20260506131509 | 8 | 292 | 8.0 | 0.0 | 0.00 | 0.00 | 0.71 | 94 | 1008.2 |
| 20260506130001 | 7 | 306 | 8.0 | 0.0 | 0.00 | 0.00 | 0.71 | 95 | 1007.9 |
| 20260506124602 | 7 | 326 | 9.7 | 0.0 | 0.00 | 0.00 | 0.71 | 96 | 1007.7 |
| 20260506124501 | 7 | 329 | 9.7 | 0.0 | 0.00 | 0.00 | 0.71 | 96 | 1007.7 |
| 20260506123047 | 7 | 301 | 6.4 | 0.0 | 0.00 | 0.00 | 0.71 | 97 | 1007.2 |
| 20260506121605 | 7 | 338 | 4.8 | 0.0 | 0.00 | 0.00 | 0.71 | 98 | 1007.0 |
| 20260506120012 | 7 | 307 | 3.2 | 0.0 | 0.00 | 0.00 | 0.71 | 98 | 1006.9 |
| 20260506114529 | 7 | 298 | 6.4 | 0.0 | 0.00 | 0.00 | 0.71 | 98 | 1006.9 |
| 20260506113058 | 7 | 298 | 1.6 | 0.0 | 0.00 | 0.00 | 0.71 | 98 | 1006.8 |
| 20260506111623 | 7 | 292 | 0.0 | 0.0 | 0.00 | 0.00 | 0.71 | 98 | 1006.4 |
| 20260506110002 | 7 | 294 | 3.2 | 0.0 | 0.00 | 0.00 | 0.71 | 98 | 1006.1 |
| 20260506104520 | 7 | 298 | 6.4 | 0.0 | 0.00 | 0.00 | 0.71 | 98 | 1006.4 |
| 20260506103046 | 7 | 294 | 8.0 | 0.0 | 0.00 | 0.00 | 0.71 | 98 | 1006.1 |
| 20260506101529 | 7 | 333 | 1.6 | 0.0 | 0.00 | 0.00 | 0.71 | 98 | 1005.6 |
| 20260506100035 | 7 | 24 | 0.0 | 0.0 | 0.00 | 0.00 | 0.71 | 99 | 1005.2 |
| 20260506094534 | 7 | 27 | 0.0 | 0.0 | 0.00 | 0.00 | 0.71 | 99 | 1004.6 |
| 20260506093033 | 7 | 319 | 1.6 | 0.0 | 0.00 | 0.00 | 0.71 | 99 | 1005.4 |
| 20260506091527 | 7 | 294 | 3.2 | 0.0 | 0.00 | 0.00 | 0.71 | 99 | 1005.9 |
| 20260506090021 | 7 | 296 | 1.6 | 0.0 | 0.00 | 0.00 | 0.71 | 99 | 1005.9 |
| 20260506084522 | 7 | 313 | 0.0 | 0.0 | 0.00 | 0.00 | 0.69 | 99 | 1005.6 |
| 20260506083018 | 7 | 311 | 0.0 | 0.0 | 0.00 | 0.00 | 0.69 | 99 | 1005.4 |
| 20260506081517 | 7 | 312 | 0.0 | 0.0 | 0.00 | 0.00 | 0.66 | 99 | 1005.4 |
| 20260506073013 | 7 | 320 | 0.0 | 0.0 | 0.00 | 0.00 | 0.61 | 98 | 1005.5 |
| 20260506071514 | 7 | 316 | 0.0 | 0.0 | 0.00 | 0.00 | 0.56 | 98 | 1005.3 |
| 20260506061511 | 7 | 348 | 0.0 | 0.0 | 0.00 | 0.00 | 0.33 | 98 | 1005.1 |
| 20260506044613 | 8 | 15 | 1.6 | 0.0 | 0.00 | 0.00 | 0.08 | 99 | 1005.2 |
| 20260506043056 | 9 | 350 | 0.0 | 0.0 | 0.00 | 0.00 | 0.05 | 99 | 1005.3 |
| 20260506041556 | 9 | 342 | 0.0 | 0.0 | 0.00 | 0.00 | 0.03 | 99 | 1005.3 |
| 20260506040053 | 9 | 336 | 0.0 | 0.0 | 0.00 | 0.00 | 0.00 | 99 | 1005.4 |
| 20260506034552 | 9 | 5 | 1.6 | 0.0 | 0.00 | 0.00 | 2.08 | 99 | 1005.7 |
| 20260506033051 | 9 | 34 | 0.0 | 0.0 | 0.00 | 0.00 | 2.06 | 99 | 1005.9 |
| 20260506031556 | 9 | 334 | 0.0 | 0.0 | 0.00 | 0.00 | 2.01 | 98 | 1006.1 |
| 20260506030048 | 10 | 360 | 0.0 | 0.0 | 0.00 | 0.00 | 1.98 | 99 | 1006.2 |
| 20260506024557 | 10 | 5 | 0.0 | 0.0 | 0.00 | 0.00 | 1.96 | 99 | 1006.2 |
| 20260506023047 | 10 | 9 | 0.0 | 0.0 | 0.00 | 0.00 | 1.88 | 99 | 1006.3 |
| 20260506021544 | 10 | 12 | 0.0 | 0.0 | 0.00 | 0.00 | 1.83 | 98 | 1006.0 |
| 20260506020044 | 10 | 300 | 1.6 | 0.0 | 0.00 | 0.00 | 1.78 | 98 | 1006.0 |
| 20260506014544 | 10 | 36 | 0.0 | 0.0 | 0.00 | 0.00 | 1.73 | 98 | 1005.4 |
| 20260506013041 | 10 | 45 | 0.0 | 0.0 | 0.00 | 0.00 | 1.68 | 98 | 1005.2 |
| 20260506011539 | 10 | 40 | 0.0 | 0.0 | 0.00 | 0.00 | 1.57 | 98 | 1005.1 |
| 20260506010037 | 10 | 323 | 1.6 | 0.0 | 0.00 | 0.00 | 1.42 | 98 | 1005.2 |
| 20260506004535 | 10 | 317 | 3.2 | 0.0 | 0.00 | 0.00 | 1.32 | 98 | 1005.0 |
| 20260506003038 | 10 | 85 | 4.8 | 0.0 | 0.00 | 0.00 | 1.14 | 98 | 1004.7 |
| 20260506001538 | 10 | 30 | 0.0 | 0.0 | 0.00 | 0.00 | 1.09 | 98 | 1004.4 |
| 20260506000032 | 10 | 30 | 0.0 | 0.0 | 0.00 | 0.00 | 0.99 | 97 | 1004.5 |
| 20260505234534 | 11 | 53 | 0.0 | 0.0 | 0.00 | 0.00 | 0.91 | 97 | 1004.5 |
| 20260505233026 | 11 | 56 | 0.0 | 0.0 | 0.00 | 0.00 | 0.86 | 97 | 1004.6 |
| 20260505231524 | 12 | 323 | 1.6 | 0.0 | 0.00 | 0.00 | 0.86 | 97 | 1004.5 |
| 20260505230042 | 13 | 340 | 4.8 | 0.0 | 0.00 | 0.00 | 0.81 | 97 | 1004.6 |
| 20260505224518 | 13 | 292 | 4.8 | 0.0 | 0.00 | 0.00 | 0.76 | 97 | 1004.7 |
| 20260505223016 | 13 | 289 | 9.7 | 0.0 | 0.00 | 0.00 | 0.61 | 97 | 1004.7 |
| 20260505221515 | 14 | 289 | 9.7 | 0.0 | 0.00 | 0.00 | 0.41 | 96 | 1004.7 |
| 20260505220013 | 15 | 325 | 0.0 | 0.0 | 0.00 | 0.00 | 0.25 | 96 | 1004.2 |
| 20260505214513 | 15 | 325 | 1.6 | 0.0 | 0.00 | 0.00 | 0.25 | 96 | 1004.1 |
| 20260505213012 | 14 | 284 | 8.0 | 0.0 | 0.00 | 0.00 | 0.25 | 96 | 1004.2 |
| 20260505211514 | 14 | 267 | 1.6 | 0.0 | 0.00 | 0.00 | 0.25 | 96 | 1004.2 |
| 20260505210014 | 14 | 278 | 9.7 | 0.0 | 0.00 | 0.00 | 0.23 | 96 | 1004.3 |
| 20260505204510 | 15 | 282 | 8.0 | 0.0 | 0.00 | 0.00 | 0.23 | 96 | 1004.3 |
| 20260505203010 | 15 | 265 | 11.3 | 0.0 | 0.00 | 0.00 | 0.20 | 94 | 1004.6 |
| 20260505201512 | 15 | 281 | 9.7 | 0.0 | 0.00 | 0.00 | 0.10 | 94 | 1004.5 |
| 20260505200007 | 15 | 248 | 8.0 | 0.0 | 0.00 | 0.00 | 0.10 | 93 | 1004.3 |
| 20260505194506 | 15 | 275 | 9.7 | 0.0 | 0.00 | 0.00 | 0.05 | 92 | 1004.5 |
| 20260505193005 | 16 | 287 | 11.3 | 0.0 | 0.00 | 0.00 | 0.05 | 91 | 1004.6 |
| 20260505191506 | 16 | 284 | 12.9 | 0.0 | 0.00 | 0.00 | 0.05 | 87 | 1004.6 |
| 20260505190009 | 17 | 310 | 9.7 | 0.0 | 0.00 | 0.00 | 0.05 | 82 | 1004.5 |